Regional Weather Roundup
Issued by NWS Charleston, WV

Home | Current Version | Previous Version | Text Only | Print | Product List | Glossary On
Versions: 1 2 3 4 5 6 7 8 9 10 11 12 13 14 15 16 17 18 19 20 21 22 23 24 25 26 27 28 29 30 31 32 33 34 35 36 37 38 39 40 41 42 43 44 45 46 47 48 49 50
000
ASUS41 KRLX 081210
RWRRLX
West Virginia Regional Weather Roundup
National Weather Service Charleston WV
700 AM EST MON FEB 08 2016

Note: "fair" indicates few or no clouds below 12,000 feet with no
significant weather and/or obstructions to visibility.

WVZ003-081300-
Northern Panhandle of West Virginia

CITY           SKY/WX    TMP DP  RH WIND       PRES   REMARKS
WHEELING       MOCLDY    35  21  56 SE6       29.66F
$$

WVZ009-081300-
Northwest West Virginia

CITY           SKY/WX    TMP DP  RH WIND       PRES   REMARKS
PARKERSBURG    CLOUDY    37  23  56 SE5       29.68F
$$

WVZ006-081300-
Western West Virginia

CITY           SKY/WX    TMP DP  RH WIND       PRES   REMARKS
HUNTINGTON     CLOUDY    41  22  46 S7        29.66F
$$

WVZ015-081300-
West Central West Virginia

CITY           SKY/WX    TMP DP  RH WIND       PRES   REMARKS
CHARLESTON     MOCLDY    34  26  72 CALM      29.67F
$$

WVZ022-031-081300-
North Central West Virginia

CITY           SKY/WX    TMP DP  RH WIND       PRES   REMARKS
CLARKSBURG       N/A     28  22  78 CALM      29.69F
MORGANTOWN       N/A     32  21  64 SE3       29.70S
$$

WVZ025-035-042-045-081300-
Southern West Virginia

CITY           SKY/WX    TMP DP  RH WIND       PRES   REMARKS
BECKLEY          N/A     36  19  50 S7        29.68F
LOGAN          CLOUDY    37  23  56 S6        29.67F
BLUEFIELD        N/A     34  18  52 S3        29.69F
LEWISBURG      MOCLDY    25  22  89 N3        29.72F
$$

WVZ047-081300-
Northern Mountains of West Virginia

CITY           SKY/WX    TMP DP  RH WIND       PRES   REMARKS
ELKINS           N/A     20  16  84 CALM      29.72F
$$

WVZ052-081300-
Eastern Panhandle of West Virginia

CITY           SKY/WX    TMP DP  RH WIND       PRES   REMARKS
MARTINSBURG      N/A     22  18  85 CALM      29.81R
PETERSBURG       N/A     24  22  94 CALM      29.78F
$$



USA.gov is the U.S. government's official web portal to all federal, state and local government web resources and services.